www.pogodaiklimat.ru

Погода и климат >> Архив погоды >> Украина >> Пришиб


ПОГОДА в Пришибе

  • Прогноз погоды в Пришибе
  • Монитор погоды в Пришибе

АРХИВ ПОГОДЫ в Пришибе

Время (UTC), дата Ветер
(напр.,м/с)
 
Видим.   Явления Облачность Т
(С)
Тd
(С)
f
(%)
Тe
(С)
Тes
(С)
Комфортность P
(гПа)
Po
(гПа)
Тmin
(С)
Tmax
(С)
R
(мм)
R24
(мм)
S
(см)
15 16.07 С 3 20 км гроза без осадков 10/6 600 м
[Cb cap Ac und]
+23.8 +13.6 53 +26 +26 жарко 1006.0 995.9
18 16.07 штиль 0 8000 м дымка {гроза, ливн. осадки} 8/5 600 м
[Cb cap Ci fib]
+19.0 +17.3 90 +20 +20 1008.0 997.7 +26.3 0.7
21 16.07 СЗ 1 7000 м дымка 6/6 600 м
[Sc]
+15.8 +14.2 90 +16 +16 1008.0 997.6
00 17.07 СЗ 1 8000 м дымка 4/4 600 м
[Sc]
+14.3 +12.7 90 +15 +15 1008.0 997.6
03 17.07 З 1 4000 м дымка 8/0
[Ci fib]
+13.7 +12.4 92 +14 +14 1008.0 997.5
06 17.07 С 1 10 км 5/1 600 м
[Cu hum Ci fib]
+21.5 +16.9 75 +25 +29 комфорт 1008.0 997.8 +13.3
09 17.07 СЗ 2 20 км 8/8 600 м
[Cu med, cong]
+25.3 +11.5 42 +27 +27 жарко 1008.0 997.9
12 17.07 З 1 20 км 8/8 600 м
[Cu med, cong]
+26.9 +8.3 31 +27 +27 жарко 1007.0 997.0
15 17.07 СЗ 3 20 км 5/3 600 м
[Cu med, cong Cc]
+26.9 +7.8 30 +27 +28 жарко 1007.0 997.0
18 17.07 штиль 0 50 км 3/0
[Ci fib]
+20.5 +12.5 60 +22 +22 комфорт 1007.0 996.8 +27.7
21 17.07 штиль 0 21 км ясно +15.1 +9.9 71 +15 +15 1008.0 997.6
00 18.07 штиль 0 13 км ясно +13.0 +9.8 81 +13 +13 1008.0 997.5
03 18.07 штиль 0 10 км ясно +12.5 +9.9 84 +12 +13 1009.0 998.5
06 18.07 С 1 20 км ясно +22.8 +13.8 57 +26 +36 жарко 1009.0 998.9 +11.3
09 18.07 СЗ 4 20 км 1/1 1000 м
[Cu hum]
+26.0 +11.0 39 +27 +39 жарко 1009.0 998.9
12 18.07 СЗ 4 20 км 1/1 1000 м
[Cu hum]
+27.2 +8.1 30 +27 +36 жарко 1009.0 999.0
15 18.07 З 3 20 км 3/0
[Ci fib]
+27.1 +8.0 30 +27 +29 жарко 1010.0 1000.0
18 18.07 СЗ 2 50 км 1/0
[Ci fib]
+22.2 +10.0 46 +24 +24 комфорт 1012.0 1001.8 +28.0
21 18.07 С 2 20 км ясно +16.3 +11.0 71 +16 +16 1013.0 1002.6
00 19.07 С 1 9000 м дымка ясно +12.5 +10.4 87 +12 +12 1014.0 1003.4
03 19.07 штиль 0 10 км дымка ясно +11.3 +9.2 87 +11 +11 1016.0 1005.4
06 19.07 З 1 20 км ясно +22.4 +11.2 49 +25 +35 комфорт 1016.0 1005.8 +9.9
09 19.07 СЗ 3 20 км 8/8 600 м
[Cu hum]
+25.2 +8.6 35 +26 +26 жарко 1016.0 1005.8
12 19.07 З 2 20 км 6/6 600 м
[Cu hum]
+26.8 +8.7 32 +27 +32 жарко 1016.0 1005.9
15 19.07 СЗ 2 20 км 8/8 600 м
[Cu hum]
+26.6 +9.9 35 +27 +27 жарко 1016.0 1005.9
18 19.07 СЗ 1 50 км ясно +21.0 +10.8 52 +24 +24 комфорт 1017.0 1006.7 +27.4
21 19.07 СЗ 1 20 км ясно +15.4 +11.0 75 +16 +16 1018.0 1007.5
00 20.07 штиль 0 9000 м дымка ясно +12.9 +10.4 85 +12 +12 1019.0 1008.4
03 20.07 штиль 0 4000 м дымка ясно +12.8 +10.5 86 +12 +13 1019.0 1008.4
06 20.07 штиль 0 20 км ясно +25.0 +10.8 41 +26 +38 жарко 1020.0 1009.8 +11.4
09 20.07 С 1 20 км 5/5 1000 м
[Cu med, cong]
+27.2 +8.1 30 +27 +35 жарко 1019.0 1008.9
12 20.07 С 3 20 км 4/3 1000 м
[Cu med, cong Ci fib]
+28.8 +5.6 23 +28 +35 жарко 1019.0 1008.9
15 20.07 З 1 20 км 3/3 1000 м
[Cu med, cong]
+29.4 +6.7 24 +28 +31 жарко 1018.0 1008.0
18 20.07 СЗ 1 50 км ясно +22.6 +11.0 48 +25 +25 комфорт 1019.0 1008.7 +29.6
21 20.07 СЗ 1 50 км ясно +18.5 +10.6 60 +20 +20 1019.0 1008.6
00 21.07 СЗ 1 16 км ясно +16.2 +10.5 69 +17 +17 1019.0 1008.5
03 21.07 СЗ 1 10 км ясно +15.4 +10.6 73 +16 +17 1019.0 1008.5
06 21.07 СВ 1 20 км ясно +26.9 +9.3 33 +27 +37 жарко 1019.0 1008.9 +15.3
09 21.07 СЗ 3 20 км 6/6 1000 м
[Cu hum]
+30.3 +6.2 22 +29 +35 жарко 1018.0 1008.0
12 21.07 С 1 20 км 5/5 1000 м
[Cu hum]
+30.9 +8.6 25 +30 +36 жарко 1017.0 1007.0
15 21.07 С 4 20 км 4/3 600 м
[Cu hum Ac trans]
+30.8 +6.6 22 +29 +31 жарко 1016.0 1006.0
18 21.07 С 4 50 км ясно +23.2 +12.7 52 +26 +26 жарко 1016.6 1006.4 +31.6
21 21.07 С 2 22 км ясно +18.9 +13.8 72 +20 +20 1017.9 1007.5
00 22.07 С 2 26 км ясно +17.4 +11.5 68 +18 +18 1017.8 1007.4
03 22.07 СЗ 2 10 км ясно +17.2 +10.8 66 +18 +18 1018.0 1007.6
06 22.07 С 1 20 км ясно +25.4 +13.6 48 +28 +38 жарко 1017.0 1006.9 +15.9
09 22.07 С 2 20 км 1/1 1000 м
[Cu hum]
+30.4 +9.8 28 +30 +47 жарко 1016.0 1006.0
12 22.07 С 3 20 км 4/4 1000 м
[Cu med, cong]
+32.1 +9.0 24 +31 +39 жарко 1015.0 1005.1
15 22.07 СЗ 4 20 км 3/3 1000 м
[Cu med, cong]
+32.1 +7.7 22 +31 +32 жарко 1014.0 1004.1
18 22.07 СЗ 1 50 км 3/0
[Ac trans]
+24.0 +14.4 55 +27 +27 жарко 1014.0 1003.8 +32.8
21 22.07 ЮЗ 1 50 км ясно +23.3 +12.0 49 +26 +26 жарко 1014.0 1003.8
00 23.07 В 1 30 км 10/5 600 м
[Cb cap Ac und]
+19.3 +12.1 63 +22 +22 комфорт 1013.0 1002.7
03 23.07 СЗ 1 10 км 9/6 600 м
[Cb cap Ac trans]
+20.9 +14.8 68 +25 +25 комфорт 1013.0 1002.7
06 23.07 С 2 20 км 9/9 600 м
[Cb cap]
+25.0 +15.0 54 +28 +28 жарко 1012.0 1001.9 +18.4
09 23.07 СВ 1 20 км 9/6 600 м
[Cb cap Ci fib]
+27.0 +16.0 51 +30 +30 душно 1012.0 1002.0
12 23.07 С 1 20 км 8/5 600 м
[Cb cap Ci fib]
+29.4 +14.4 40 +31 +31 жарко 1010.0 1000.1

 

Местоположение метеостанции Пришиб (Запорожская область, Украина): широта 47.27 долгота 35.33 высота над уровнем моря 88 м.

В архиве по умолчанию представлена погода в Пришибе за последнюю неделю. Архивные данные за месяц целиком и за предыдущие месяцы, начиная с января 2011 года, Вы можете получить, выбрав интересующий диапазон дат из раскрывающегося списка и нажав кнопку "Ввод!".


*Определитесь, кто Вы:
робот инопланетянин человек

Внимание! Время в таблицах - всемирное. Для получения местного времени необходимо прибавить поправку, которая равна 2 ч.

Смотрите также архив погоды в соседних городах и на ближайших метеорологических станциях:

Погода в Мелитополе (Запорожская область, Украина) (49 км)
Погода в Запорожье (Запорожская область, Украина) (63 км)
Погода в Никополе (Днепропетровская область, Украина) (75 км)
Погода в Кирилловке (Запорожская область, Украина) (76 км)
Погода в Ботиево (Запорожская область, Украина) (77 км)
Погода в Гуляйполе (Запорожская область, Украина) (82 км)
Погода в Нижних Серогозах (Херсонская область, Украина) (85 км)
Погода в Чаплино (Днепропетровская область, Украина) (117 км)
Погода в Лошкаревке (Днепропетровская область, Украина) (117 км)
Погода в Бердянске (Запорожская область, Украина) (124 км)

Пояснения к столбцам:

Ветер - указаны скорость ветра в м/с - средняя за 10 мин, порывы в срок и между сроками (в фигурных скобках) и направление, откуда дует ветер: С - северный, СВ - северо-восточный, В - восточный, ЮВ - юго-восточный, Ю - южный, ЮЗ - юго-западный, З - западный, СЗ - северо-западный.
Видимость - горизонтальная дальность видимости в метрах или километрах. При видимости от 1 до 10 км при отсутствии осадков обычно наблюдается дымка, при ухудшении видимости до 1 км и менее - туман. В сухую погоду видимость может ухудшаться дымом, пылью или мглою.
Явления - указаны атмосферные явления, наблюдавшиеся в срок или в последний час перед сроком; фигурными скобками обозначены явления, наблюдавшиеся между сроками (за 1-3 часа до срока); квадратными скобками обозначены град или гололедные отложения с указанием их диаметра в мм.
Облачность - указаны через наклонную черту общая и нижняя облачность в баллах и высота нижней границы облаков в метрах; квадратными скобками обозначены формы облаков: Ci - перистые, Cs - перисто-слоистые, Cc - перисто-кучевые, Ac - высококучевые, As - высокослоистые, Sc - слоисто-кучевые, Ns - слоисто-дождевые, Cu - кучевые, Cb - кучево-дождевые. Подробнее классификацию облаков см. в Атласе облаков (PDF).
T - Температура воздуха - температура, измеренная на высоте 2 м над землей.
Td - Температура точки росы - температура, при понижении до которой содержащийся в воздухе водяной пар достигнет насыщения.
f - Относительная влажность воздуха - влажноcть воздуха, измеренная на высоте 2 м над землей.
Te - Эффективная температура - температура, которую ощущает одетый по сезону человек в тени. Характеристика душности погоды. При расчете учитывается влияние влажности воздуха и скорости ветра на теплоощущения человека.
Tes - Эффективная температура на солнце - температура, которую ощущает человек, с поправкой на солнечный нагрев. Характеристика знойности погоды. Зависит от высоты солнца над горизонтом, облачности и скорости ветра. Ночью, в пасмурную погоду, а также при ветре 12 м/с и более поправка равна нулю.
P - Атмосферное давление - приведенное к уровню моря атмосферное давление.
Po - Атмосферное давление - измеренное на уровне метеостанции атмосферное давление.
Tmin - Минимальная температура - минимум температуры воздуха на высоте 2 м над землей.
Tmax - Максимальная температура - максимум температуры воздуха на высоте 2 м над землей.
R - Количество осадков - Количество выпавших осадков за период времени, мм. При наведении курсора мыши на число - период времени, за который выпало указанное количество осадков.
R24 - Количество осадков - Количество выпавших осадков за 24 часа, мм.
S - Снежный покров - Высота снежного покрова, см. При наведении курсора мыши на число - состояние снежного покрова и степень покрытия местности в баллах.